| time (UTC) | temp F | wind direction | speed MPH | gust MPH | rain 1hr in | rain 24hr in | rain mn in | humidity % | barometer mb |
| 20260509004507 | 71 | 66 | 4.0 | 6.0 | 0.00 | 0.00 | 0.00 | 83 | 1015.6 |
| 20260509002007 | 71 | 101 | 1.0 | 6.0 | 0.00 | 0.00 | 0.00 | 82 | 1015.2 |
| 20260509001517 | 71 | 79 | 3.0 | 6.0 | 0.00 | 0.00 | 0.00 | 82 | 1015.1 |
| 20260509001006 | 71 | 162 | 4.0 | 6.0 | 0.00 | 0.00 | 0.00 | 82 | 1015.0 |
| 20260508234504 | 72 | 53 | 2.0 | 6.0 | 0.00 | 0.00 | 0.00 | 80 | 1014.7 |
| 20260508234003 | 72 | 58 | 3.0 | 9.0 | 0.00 | 0.00 | 0.00 | 80 | 1014.5 |
| 20260508233503 | 72 | 46 | 2.0 | 9.0 | 0.00 | 0.00 | 0.00 | 80 | 1014.6 |
| 20260508233006 | 73 | 89 | 3.0 | 6.0 | 0.00 | 0.00 | 0.00 | 80 | 1014.7 |
| 20260508232504 | 73 | 93 | 3.0 | 10.0 | 0.00 | 0.00 | 0.00 | 80 | 1014.6 |
| 20260508232005 | 73 | 103 | 5.0 | 10.0 | 0.00 | 0.00 | 0.00 | 79 | 1014.6 |
| 20260508231510 | 73 | 68 | 4.0 | 13.0 | 0.00 | 0.00 | 0.00 | 79 | 1014.7 |
| 20260508231004 | 73 | 103 | 7.0 | 13.0 | 0.00 | 0.00 | 0.00 | 78 | 1014.8 |
| 20260508230504 | 74 | 97 | 6.0 | 12.0 | 0.00 | 0.00 | 0.00 | 78 | 1014.9 |
| 20260508230012 | 74 | 72 | 7.0 | 13.0 | 0.00 | 0.00 | 0.00 | 77 | 1015.0 |
| 20260508225511 | 74 | 68 | 8.0 | 13.0 | 0.00 | 0.00 | 0.00 | 77 | 1014.9 |
| 20260508225004 | 75 | 109 | 6.0 | 13.0 | 0.00 | 0.00 | 0.00 | 76 | 1014.9 |
| 20260508224504 | 75 | 117 | 3.0 | 12.0 | 0.00 | 0.00 | 0.00 | 76 | 1014.6 |
| 20260508224003 | 75 | 43 | 5.0 | 10.0 | 0.00 | 0.00 | 0.00 | 76 | 1014.6 |
| 20260508223504 | 75 | 199 | 4.0 | 11.0 | 0.00 | 0.00 | 0.00 | 76 | 1014.6 |
| 20260508223004 | 75 | 69 | 2.0 | 12.0 | 0.00 | 0.00 | 0.00 | 76 | 1014.6 |
| 20260508222504 | 76 | 102 | 7.0 | 12.0 | 0.00 | 0.00 | 0.00 | 75 | 1014.6 |
| 20260508222004 | 76 | 91 | 5.0 | 12.0 | 0.00 | 0.00 | 0.00 | 75 | 1014.6 |
| 20260508221510 | 76 | 103 | 8.0 | 13.0 | 0.00 | 0.00 | 0.00 | 73 | 1014.5 |
| 20260508221003 | 77 | 49 | 7.0 | 13.0 | 0.00 | 0.00 | 0.00 | 72 | 1014.3 |
| 20260508220507 | 77 | 108 | 3.0 | 11.0 | 0.00 | 0.00 | 0.00 | 72 | 1014.3 |
| 20260508220015 | 77 | 104 | 6.0 | 14.0 | 0.00 | 0.00 | 0.00 | 72 | 1014.2 |
| 20260508215516 | 77 | 58 | 5.0 | 14.0 | 0.00 | 0.00 | 0.00 | 72 | 1014.3 |
| 20260508215013 | 78 | 81 | 5.0 | 13.0 | 0.00 | 0.00 | 0.00 | 71 | 1014.2 |
| 20260508214526 | 78 | 69 | 7.0 | 12.0 | 0.00 | 0.00 | 0.00 | 71 | 1014.0 |
| 20260508214004 | 78 | 96 | 8.0 | 11.0 | 0.00 | 0.00 | 0.00 | 70 | 1014.1 |
| 20260508213503 | 79 | 120 | 4.0 | 9.0 | 0.00 | 0.00 | 0.00 | 70 | 1014.0 |
| 20260508213004 | 79 | 89 | 5.0 | 9.0 | 0.00 | 0.00 | 0.00 | 70 | 1014.1 |
| 20260508212504 | 79 | 120 | 5.0 | 10.0 | 0.00 | 0.00 | 0.00 | 69 | 1014.1 |
| 20260508212004 | 79 | 56 | 4.0 | 12.0 | 0.00 | 0.00 | 0.00 | 69 | 1014.1 |
| 20260508211536 | 79 | 25 | 7.0 | 12.0 | 0.00 | 0.00 | 0.00 | 68 | 1014.2 |
| 20260508211004 | 80 | 126 | 4.0 | 11.0 | 0.00 | 0.00 | 0.00 | 67 | 1014.2 |
| 20260508210506 | 80 | 89 | 6.0 | 11.0 | 0.00 | 0.00 | 0.00 | 66 | 1014.2 |
| 20260508210009 | 81 | 84 | 7.0 | 11.0 | 0.00 | 0.00 | 0.00 | 66 | 1014.1 |
| 20260508205510 | 80 | 104 | 3.0 | 9.0 | 0.00 | 0.00 | 0.00 | 67 | 1014.0 |
| 20260508205006 | 80 | 99 | 1.0 | 7.0 | 0.00 | 0.00 | 0.00 | 68 | 1014.0 |
| 20260508204517 | 80 | 104 | 4.0 | 8.0 | 0.00 | 0.00 | 0.00 | 66 | 1013.9 |
| 20260508204005 | 80 | 108 | 4.0 | 10.0 | 0.00 | 0.00 | 0.00 | 66 | 1013.9 |
| 20260508203508 | 80 | 85 | 2.0 | 12.0 | 0.00 | 0.00 | 0.00 | 65 | 1014.0 |
| 20260508203022 | 81 | 68 | 6.0 | 12.0 | 0.00 | 0.00 | 0.00 | 65 | 1014.0 |
| 20260508201506 | 80 | 42 | 5.0 | 10.0 | 0.00 | 0.00 | 0.00 | 65 | 1014.2 |
| 20260508201005 | 80 | 72 | 4.0 | 11.0 | 0.00 | 0.00 | 0.00 | 64 | 1014.4 |
| 20260508200505 | 81 | 53 | 8.0 | 10.0 | 0.00 | 0.00 | 0.00 | 62 | 1014.5 |
| 20260508200011 | 81 | 188 | 2.0 | 6.0 | 0.00 | 0.00 | 0.00 | 62 | 1014.6 |
| 20260508195507 | 81 | 99 | 3.0 | 7.0 | 0.00 | 0.00 | 0.00 | 63 | 1014.7 |
| 20260508195005 | 81 | 84 | 5.0 | 10.0 | 0.00 | 0.00 | 0.00 | 64 | 1014.8 |
| 20260508194528 | 80 | 35 | 7.0 | 10.0 | 0.00 | 0.00 | 0.00 | 64 | 1014.9 |
| 20260508194007 | 80 | 12 | 5.0 | 9.0 | 0.00 | 0.00 | 0.00 | 64 | 1015.1 |
| 20260508193504 | 80 | 23 | 5.0 | 9.0 | 0.00 | 0.00 | 0.00 | 63 | 1015.1 |
| 20260508193021 | 81 | 96 | 5.0 | 9.0 | 0.00 | 0.00 | 0.00 | 63 | 1015.2 |
| 20260508192513 | 81 | 59 | 6.0 | 9.0 | 0.00 | 0.00 | 0.00 | 64 | 1015.1 |
| 20260508192006 | 80 | 33 | 4.0 | 8.0 | 0.00 | 0.00 | 0.00 | 64 | 1015.2 |
| 20260508191002 | 80 | 84 | 5.0 | 8.0 | 0.00 | 0.00 | 0.00 | 65 | 1015.2 |
| 20260508190504 | 80 | 15 | 2.0 | 8.0 | 0.00 | 0.00 | 0.00 | 65 | 1015.4 |
| 20260508190013 | 80 | 34 | 4.0 | 10.0 | 0.00 | 0.00 | 0.00 | 65 | 1015.4 |
| 20260508185505 | 80 | 78 | 6.0 | 11.0 | 0.00 | 0.00 | 0.00 | 63 | 1015.4 |
| 20260508185007 | 81 | 40 | 6.0 | 11.0 | 0.00 | 0.00 | 0.00 | 62 | 1015.7 |
| 20260508184513 | 82 | 33 | 7.0 | 10.0 | 0.00 | 0.00 | 0.00 | 61 | 1015.7 |
| 20260508184006 | 82 | 72 | 3.0 | 9.0 | 0.00 | 0.00 | 0.00 | 61 | 1015.7 |
| 20260508183512 | 81 | 62 | 2.0 | 3.0 | 0.00 | 0.00 | 0.00 | 62 | 1015.8 |
| 20260508183024 | 81 | 158 | 1.0 | 7.0 | 0.00 | 0.00 | 0.00 | 62 | 1015.8 |
| 20260508182510 | 80 | 141 | 3.0 | 7.0 | 0.00 | 0.00 | 0.00 | 62 | 1015.8 |
| 20260508182009 | 80 | 157 | 2.0 | 9.0 | 0.00 | 0.00 | 0.00 | 63 | 1015.8 |
| 20260508181527 | 80 | 68 | 4.0 | 11.0 | 0.00 | 0.00 | 0.00 | 63 | 1015.8 |
| 20260508181012 | 80 | 87 | 7.0 | 11.0 | 0.00 | 0.00 | 0.00 | 62 | 1015.9 |
| 20260508180506 | 80 | 1 | 2.0 | 8.0 | 0.00 | 0.00 | 0.00 | 63 | 1016.0 |
| 20260508175010 | 79 | 13 | 4.0 | 10.0 | 0.00 | 0.00 | 0.00 | 64 | 1016.1 |
| 20260508174514 | 80 | 43 | 3.0 | 8.0 | 0.00 | 0.00 | 0.00 | 63 | 1016.1 |
| 20260508174005 | 80 | 145 | 2.0 | 7.0 | 0.00 | 0.00 | 0.00 | 63 | 1016.0 |
| 20260508173505 | 80 | 89 | 3.0 | 7.0 | 0.00 | 0.00 | 0.00 | 62 | 1015.9 |
| 20260508172508 | 80 | 15 | 5.0 | 8.0 | 0.00 | 0.00 | 0.00 | 63 | 1016.1 |
| 20260508172008 | 80 | 37 | 1.0 | 4.0 | 0.00 | 0.00 | 0.00 | 62 | 1016.3 |
| 20260508171528 | 80 | 160 | 2.0 | 6.0 | 0.00 | 0.00 | 0.00 | 63 | 1016.3 |
| 20260508171009 | 80 | 75 | 3.0 | 6.0 | 0.00 | 0.00 | 0.00 | 63 | 1016.2 |
| 20260508170509 | 80 | 86 | 3.0 | 6.0 | 0.00 | 0.00 | 0.00 | 63 | 1016.2 |
| 20260508170022 | 79 | 100 | 2.0 | 5.0 | 0.00 | 0.00 | 0.00 | 64 | 1016.2 |
| 20260508165507 | 79 | 110 | 2.0 | 8.0 | 0.00 | 0.00 | 0.00 | 62 | 1016.3 |
| 20260508164006 | 81 | 125 | 2.0 | 8.0 | 0.00 | 0.00 | 0.00 | 62 | 1016.4 |
| 20260508163502 | 80 | 192 | 3.0 | 6.0 | 0.00 | 0.00 | 0.00 | 61 | 1016.5 |
| 20260508162502 | 79 | 356 | 1.0 | 5.0 | 0.00 | 0.00 | 0.00 | 62 | 1016.6 |
| 20260508162006 | 78 | 143 | 2.0 | 6.0 | 0.00 | 0.00 | 0.00 | 62 | 1016.6 |
| 20260508161509 | 78 | 186 | 3.0 | 7.0 | 0.00 | 0.00 | 0.00 | 63 | 1016.7 |
| 20260508161003 | 78 | 94 | 5.0 | 7.0 | 0.00 | 0.00 | 0.00 | 63 | 1016.9 |
| 20260508160503 | 78 | 63 | 3.0 | 5.0 | 0.00 | 0.00 | 0.00 | 63 | 1016.9 |
| 20260508160003 | 77 | 1 | 2.0 | 6.0 | 0.00 | 0.00 | 0.00 | 64 | 1017.0 |
| 20260508155504 | 76 | 65 | 3.0 | 8.0 | 0.00 | 0.00 | 0.00 | 64 | 1017.1 |
| 20260508154531 | 76 | 360 | 4.0 | 8.0 | 0.00 | 0.00 | 0.00 | 64 | 1017.4 |
| 20260508154004 | 76 | 60 | 4.0 | 9.0 | 0.00 | 0.00 | 0.00 | 65 | 1017.3 |
| 20260508153504 | 76 | 39 | 5.0 | 9.0 | 0.00 | 0.00 | 0.00 | 64 | 1017.3 |
| 20260508153012 | 75 | 48 | 4.0 | 8.0 | 0.00 | 0.00 | 0.00 | 65 | 1017.3 |
| 20260508152509 | 75 | 30 | 4.0 | 6.0 | 0.00 | 0.00 | 0.00 | 66 | 1017.4 |
| 20260508152002 | 75 | 47 | 2.0 | 7.0 | 0.00 | 0.00 | 0.00 | 66 | 1017.3 |
| 20260508151508 | 74 | 39 | 4.0 | 6.0 | 0.00 | 0.00 | 0.00 | 67 | 1017.2 |
| 20260508151003 | 74 | 359 | 4.0 | 7.0 | 0.00 | 0.00 | 0.00 | 66 | 1017.4 |
| 20260508150504 | 74 | 41 | 3.0 | 7.0 | 0.00 | 0.00 | 0.00 | 68 | 1017.4 |
| 20260508150028 | 73 | 23 | 3.0 | 6.0 | 0.00 | 0.00 | 0.00 | 68 | 1017.3 |
| 20260508145504 | 73 | 6 | 3.0 | 6.0 | 0.00 | 0.00 | 0.00 | 67 | 1017.2 |
| 20260508145003 | 73 | 54 | 5.0 | 6.0 | 0.00 | 0.00 | 0.00 | 67 | 1017.3 |
| 20260508144509 | 73 | 27 | 2.0 | 7.0 | 0.00 | 0.00 | 0.00 | 67 | 1017.3 |
| 20260508144006 | 73 | 49 | 4.0 | 7.0 | 0.00 | 0.00 | 0.00 | 66 | 1017.2 |
| 20260508143010 | 73 | 355 | 3.0 | 6.0 | 0.00 | 0.00 | 0.00 | 68 | 1017.3 |
| 20260508142507 | 73 | 37 | 3.0 | 6.0 | 0.00 | 0.00 | 0.00 | 69 | 1017.1 |
| 20260508142009 | 72 | 45 | 2.0 | 6.0 | 0.00 | 0.00 | 0.00 | 70 | 1017.2 |
| 20260508141523 | 72 | 65 | 3.0 | 6.0 | 0.00 | 0.00 | 0.00 | 71 | 1017.1 |
| 20260508141003 | 72 | 60 | 3.0 | 6.0 | 0.00 | 0.00 | 0.00 | 71 | 1017.1 |
| 20260508140503 | 72 | 58 | 3.0 | 8.0 | 0.00 | 0.00 | 0.00 | 71 | 1017.2 |
| 20260508140005 | 72 | 46 | 5.0 | 8.0 | 0.00 | 0.00 | 0.00 | 71 | 1017.2 |
| 20260508135501 | 72 | 29 | 4.0 | 7.0 | 0.00 | 0.00 | 0.00 | 71 | 1017.1 |
| 20260508135012 | 72 | 41 | 5.0 | 7.0 | 0.00 | 0.00 | 0.00 | 71 | 1017.1 |
| 20260508134525 | 72 | 30 | 4.0 | 6.0 | 0.00 | 0.00 | 0.00 | 73 | 1017.0 |
| 20260508134004 | 71 | 65 | 1.0 | 7.0 | 0.00 | 0.00 | 0.00 | 75 | 1017.0 |
| 20260508133504 | 71 | 67 | 4.0 | 7.0 | 0.00 | 0.00 | 0.00 | 75 | 1017.0 |
| 20260508132009 | 71 | 33 | 1.0 | 3.0 | 0.00 | 0.00 | 0.00 | 80 | 1016.8 |
| 20260508131008 | 71 | 91 | 2.0 | 6.0 | 0.00 | 0.00 | 0.00 | 80 | 1016.6 |
| 20260508130508 | 70 | 16 | 3.0 | 4.0 | 0.00 | 0.00 | 0.00 | 81 | 1016.6 |
| 20260508130025 | 70 | 18 | 2.0 | 4.0 | 0.00 | 0.00 | 0.00 | 81 | 1016.7 |
| 20260508125504 | 70 | 13 | 2.0 | 4.0 | 0.00 | 0.00 | 0.00 | 80 | 1016.6 |
| 20260508125004 | 70 | 23 | 2.0 | 4.0 | 0.00 | 0.00 | 0.00 | 81 | 1016.8 |
| 20260508124507 | 70 | 25 | 3.0 | 4.0 | 0.00 | 0.00 | 0.00 | 80 | 1016.8 |
| 20260508124004 | 70 | 359 | 2.0 | 8.0 | 0.00 | 0.00 | 0.00 | 80 | 1017.0 |
| 20260508123506 | 70 | 359 | 3.0 | 8.0 | 0.00 | 0.00 | 0.00 | 80 | 1017.0 |
| 20260508123025 | 70 | 27 | 4.0 | 5.0 | 0.00 | 0.00 | 0.00 | 80 | 1016.8 |
| 20260508122504 | 70 | 20 | 3.0 | 6.0 | 0.00 | 0.00 | 0.00 | 80 | 1016.6 |
| 20260508122006 | 70 | 56 | 3.0 | 6.0 | 0.00 | 0.00 | 0.00 | 80 | 1016.5 |
| 20260508120506 | 70 | 1 | 4.0 | 8.0 | 0.00 | 0.00 | 0.00 | 80 | 1016.6 |
| 20260508120021 | 70 | 351 | 5.0 | 9.0 | 0.00 | 0.00 | 0.00 | 81 | 1016.5 |
| 20260508115511 | 70 | 16 | 4.0 | 9.0 | 0.00 | 0.00 | 0.00 | 81 | 1016.3 |
| 20260508115008 | 70 | 30 | 5.0 | 8.0 | 0.00 | 0.00 | 0.00 | 81 | 1016.3 |
| 20260508114504 | 70 | 55 | 4.0 | 8.0 | 0.00 | 0.00 | 0.00 | 82 | 1016.2 |
| 20260508114005 | 70 | 56 | 4.0 | 8.0 | 0.00 | 0.00 | 0.00 | 82 | 1016.1 |
| 20260508113504 | 71 | 4 | 4.0 | 10.0 | 0.00 | 0.00 | 0.00 | 82 | 1015.9 |
| 20260508113008 | 71 | 360 | 7.0 | 10.0 | 0.00 | 0.00 | 0.00 | 82 | 1015.8 |
| 20260508112504 | 71 | 1 | 3.0 | 9.0 | 0.00 | 0.00 | 0.00 | 83 | 1015.6 |
| 20260508112006 | 71 | 1 | 6.0 | 9.0 | 0.00 | 0.00 | 0.00 | 83 | 1015.7 |
| 20260508111005 | 71 | 359 | 7.0 | 10.0 | 0.00 | 0.00 | 0.00 | 85 | 1015.5 |
| 20260508110507 | 72 | 359 | 6.0 | 10.0 | 0.00 | 0.00 | 0.00 | 88 | 1015.3 |
| 20260508110018 | 72 | 1 | 5.0 | 10.0 | 0.00 | 0.00 | 0.00 | 90 | 1015.1 |
| 20260508105505 | 72 | 350 | 5.0 | 9.0 | 0.00 | 0.00 | 0.00 | 91 | 1014.9 |
| 20260508105011 | 72 | 359 | 5.0 | 9.0 | 0.00 | 0.00 | 0.00 | 91 | 1014.6 |
| 20260508104524 | 72 | 5 | 5.0 | 7.0 | 0.00 | 0.00 | 0.00 | 91 | 1014.6 |
| 20260508104007 | 72 | 15 | 2.0 | 7.0 | 0.00 | 0.00 | 0.00 | 91 | 1014.8 |
| 20260508103502 | 73 | 347 | 3.0 | 6.0 | 0.00 | 0.00 | 0.00 | 91 | 1014.6 |
| 20260508103006 | 73 | 20 | 3.0 | 7.0 | 0.00 | 0.00 | 0.00 | 91 | 1014.4 |
| 20260508102502 | 73 | 344 | 4.0 | 7.0 | 0.00 | 0.00 | 0.00 | 91 | 1014.5 |
| 20260508102003 | 73 | 360 | 4.0 | 6.0 | 0.00 | 0.00 | 0.00 | 91 | 1014.3 |
| 20260508101502 | 73 | 354 | 4.0 | 5.0 | 0.00 | 0.00 | 0.00 | 91 | 1014.2 |
| 20260508101002 | 73 | 13 | 3.0 | 6.0 | 0.00 | 0.00 | 0.00 | 91 | 1014.1 |
| 20260508100503 | 73 | 355 | 3.0 | 6.0 | 0.00 | 0.00 | 0.00 | 91 | 1014.2 |
| 20260508100003 | 73 | 352 | 5.0 | 7.0 | 0.00 | 0.00 | 0.00 | 91 | 1014.2 |
| 20260508095503 | 73 | 352 | 3.0 | 6.0 | 0.00 | 0.00 | 0.00 | 91 | 1014.1 |
| 20260508095003 | 73 | 307 | 3.0 | 5.0 | 0.00 | 0.00 | 0.00 | 91 | 1014.2 |
| 20260508094503 | 73 | 359 | 3.0 | 6.0 | 0.00 | 0.00 | 0.00 | 91 | 1013.9 |
| 20260508094003 | 74 | 1 | 3.0 | 6.0 | 0.00 | 0.00 | 0.00 | 91 | 1014.0 |
| 20260508093504 | 74 | 359 | 4.0 | 6.0 | 0.00 | 0.00 | 0.00 | 91 | 1014.1 |
| 20260508093009 | 74 | 352 | 2.0 | 7.0 | 0.00 | 0.00 | 0.00 | 91 | 1014.2 |
| 20260508092503 | 74 | 334 | 4.0 | 7.0 | 0.00 | 0.00 | 0.00 | 90 | 1014.2 |
| 20260508092003 | 74 | 328 | 4.0 | 7.0 | 0.00 | 0.00 | 0.00 | 90 | 1014.1 |
| 20260508091507 | 74 | 337 | 4.0 | 7.0 | 0.00 | 0.00 | 0.00 | 90 | 1014.1 |
| 20260508091005 | 74 | 324 | 4.0 | 6.0 | 0.00 | 0.00 | 0.00 | 90 | 1014.0 |
| 20260508090504 | 74 | 349 | 4.0 | 6.0 | 0.00 | 0.00 | 0.00 | 90 | 1013.9 |
| 20260508090003 | 74 | 320 | 3.0 | 5.0 | 0.00 | 0.00 | 0.00 | 90 | 1013.9 |
| 20260508085502 | 74 | 288 | 3.0 | 5.0 | 0.00 | 0.00 | 0.00 | 90 | 1013.9 |
| 20260508084504 | 74 | 328 | 4.0 | 6.0 | 0.00 | 0.00 | 0.00 | 90 | 1014.0 |
| 20260508084007 | 74 | 311 | 3.0 | 5.0 | 0.00 | 0.00 | 0.00 | 90 | 1013.9 |
| 20260508083507 | 74 | 314 | 4.0 | 5.0 | 0.00 | 0.00 | 0.00 | 90 | 1013.9 |
| 20260508083007 | 74 | 323 | 2.0 | 6.0 | 0.00 | 0.00 | 0.00 | 90 | 1013.8 |
| 20260508082503 | 74 | 328 | 2.0 | 6.0 | 0.00 | 0.00 | 0.00 | 90 | 1013.9 |
| 20260508082003 | 75 | 296 | 2.0 | 5.0 | 0.00 | 0.00 | 0.00 | 90 | 1013.8 |
| 20260508081505 | 74 | 301 | 2.0 | 5.0 | 0.00 | 0.00 | 0.00 | 90 | 1013.8 |
| 20260508081004 | 75 | 295 | 3.0 | 5.0 | 0.00 | 0.00 | 0.00 | 90 | 1014.0 |
| 20260508080507 | 75 | 302 | 1.0 | 3.0 | 0.00 | 0.00 | 0.00 | 90 | 1013.8 |
| 20260508080004 | 75 | 288 | 2.0 | 5.0 | 0.00 | 0.00 | 0.00 | 90 | 1013.9 |
| 20260508075504 | 75 | 292 | 2.0 | 5.0 | 0.00 | 0.00 | 0.00 | 90 | 1013.8 |
| 20260508074503 | 75 | 264 | 1.0 | 5.0 | 0.00 | 0.00 | 0.00 | 90 | 1013.7 |
| 20260508074003 | 75 | 246 | 2.0 | 6.0 | 0.00 | 0.00 | 0.00 | 90 | 1013.8 |
| 20260508073504 | 75 | 254 | 2.0 | 6.0 | 0.00 | 0.00 | 0.00 | 89 | 1013.9 |
| 20260508072504 | 75 | 279 | 2.0 | 6.0 | 0.00 | 0.00 | 0.00 | 90 | 1014.0 |
| 20260508072004 | 75 | 297 | 3.0 | 6.0 | 0.00 | 0.00 | 0.00 | 90 | 1014.0 |
| 20260508071504 | 75 | 297 | 3.0 | 7.0 | 0.00 | 0.00 | 0.00 | 90 | 1014.1 |
| 20260508071001 | 75 | 328 | 4.0 | 7.0 | 0.00 | 0.00 | 0.00 | 90 | 1014.2 |
| 20260508070508 | 75 | 318 | 3.0 | 6.0 | 0.00 | 0.00 | 0.00 | 90 | 1014.1 |
| 20260508070005 | 75 | 279 | 2.0 | 6.0 | 0.00 | 0.00 | 0.00 | 90 | 1014.2 |
| 20260508065504 | 75 | 278 | 2.0 | 6.0 | 0.00 | 0.00 | 0.00 | 90 | 1014.3 |
| 20260508065008 | 75 | 319 | 2.0 | 6.0 | 0.00 | 0.00 | 0.00 | 89 | 1014.3 |
| 20260508064509 | 75 | 284 | 3.0 | 6.0 | 0.00 | 0.00 | 0.00 | 89 | 1014.3 |
| 20260508064005 | 75 | 293 | 4.0 | 5.0 | 0.00 | 0.00 | 0.00 | 89 | 1014.3 |
| 20260508062503 | 75 | 268 | 3.0 | 6.0 | 0.00 | 0.00 | 0.00 | 89 | 1014.5 |
| 20260508061010 | 75 | 262 | 1.0 | 4.0 | 0.00 | 0.00 | 0.00 | 88 | 1014.6 |
| 20260508060503 | 75 | 220 | 1.0 | 4.0 | 0.00 | 0.00 | 0.00 | 88 | 1014.6 |
| 20260508060012 | 75 | 261 | 2.0 | 4.0 | 0.00 | 0.00 | 0.00 | 88 | 1014.6 |
| 20260508055504 | 75 | 243 | 2.0 | 4.0 | 0.00 | 0.00 | 0.00 | 88 | 1014.6 |
| 20260508055005 | 75 | 221 | 2.0 | 4.0 | 0.00 | 0.00 | 0.00 | 88 | 1014.6 |
| 20260508054509 | 75 | 231 | 3.0 | 4.0 | 0.00 | 0.00 | 0.00 | 88 | 1014.6 |
| 20260508054006 | 75 | 227 | 2.0 | 5.0 | 0.00 | 0.00 | 0.00 | 87 | 1014.5 |
| 20260508053503 | 75 | 233 | 2.0 | 5.0 | 0.00 | 0.00 | 0.00 | 87 | 1014.6 |
| 20260508053011 | 75 | 233 | 2.0 | 4.0 | 0.00 | 0.00 | 0.00 | 87 | 1014.7 |
| 20260508052506 | 75 | 239 | 1.0 | 3.0 | 0.00 | 0.00 | 0.00 | 87 | 1014.7 |
| 20260508052004 | 75 | 222 | 1.0 | 4.0 | 0.00 | 0.00 | 0.00 | 87 | 1014.7 |
| 20260508051007 | 75 | 296 | 2.0 | 5.0 | 0.00 | 0.00 | 0.00 | 87 | 1014.8 |
| 20260508050506 | 75 | 238 | 2.0 | 5.0 | 0.00 | 0.00 | 0.00 | 87 | 1014.7 |
| 20260508050009 | 75 | 248 | 1.0 | 4.0 | 0.00 | 0.00 | 0.00 | 87 | 1014.7 |
| 20260508045505 | 75 | 238 | 2.0 | 4.0 | 0.00 | 0.00 | 0.00 | 87 | 1014.7 |
| 20260508045004 | 75 | 240 | 1.0 | 3.0 | 0.00 | 0.00 | 0.00 | 87 | 1014.6 |
| 20260508044511 | 75 | 219 | 2.0 | 4.0 | 0.00 | 0.00 | 0.00 | 87 | 1014.5 |
| 20260508044008 | 75 | 230 | 2.0 | 4.0 | 0.00 | 0.00 | 0.00 | 87 | 1014.5 |
| 20260508043504 | 75 | 222 | 1.0 | 4.0 | 0.00 | 0.00 | 0.00 | 86 | 1014.6 |
| 20260508043012 | 75 | 217 | 2.0 | 4.0 | 0.00 | 0.00 | 0.00 | 86 | 1014.5 |
| 20260508042505 | 75 | 253 | 1.0 | 4.0 | 0.00 | 0.00 | 0.00 | 86 | 1014.4 |
| 20260508042006 | 75 | 205 | 2.0 | 4.0 | 0.00 | 0.00 | 0.00 | 86 | 1014.5 |
| 20260508041514 | 75 | 203 | 2.0 | 4.0 | 0.00 | 0.00 | 0.00 | 86 | 1014.5 |
| 20260508041004 | 75 | 227 | 2.0 | 5.0 | 0.00 | 0.00 | 0.00 | 86 | 1014.5 |
| 20260508040008 | 75 | 255 | 2.0 | 6.0 | 0.00 | 0.00 | 0.00 | 87 | 1014.5 |
| 20260508034515 | 75 | 238 | 4.0 | 7.0 | 0.00 | 0.00 | 0.00 | 87 | 1014.5 |
| 20260508034004 | 75 | 247 | 2.0 | 5.0 | 0.00 | 0.00 | 0.00 | 87 | 1014.7 |
| 20260508033504 | 75 | 198 | 1.0 | 3.0 | 0.00 | 0.00 | 0.00 | 88 | 1014.7 |
| 20260508033016 | 75 | 242 | 1.0 | 3.0 | 0.00 | 0.00 | 0.00 | 88 | 1014.7 |
| 20260508032508 | 75 | 276 | 1.0 | 4.0 | 0.00 | 0.00 | 0.00 | 88 | 1014.7 |
| 20260508032007 | 75 | 306 | 2.0 | 4.0 | 0.00 | 0.00 | 0.00 | 88 | 1014.7 |
| 20260508031518 | 75 | 301 | 1.0 | 2.0 | 0.00 | 0.00 | 0.00 | 88 | 1014.7 |
| 20260508031004 | 75 | 259 | 1.0 | 2.0 | 0.00 | 0.00 | 0.00 | 88 | 1014.5 |
| 20260508030504 | 75 | 237 | 1.0 | 3.0 | 0.00 | 0.00 | 0.00 | 88 | 1014.4 |
| 20260508030007 | 75 | 261 | 1.0 | 3.0 | 0.00 | 0.00 | 0.00 | 87 | 1014.4 |
| 20260508025504 | 75 | 236 | 0.0 | 2.0 | 0.00 | 0.00 | 0.00 | 87 | 1014.3 |
| 20260508025002 | 75 | 281 | 0.0 | 2.0 | 0.00 | 0.00 | 0.00 | 87 | 1014.4 |
| 20260508024521 | 75 | 290 | 1.0 | 2.0 | 0.00 | 0.00 | 0.00 | 87 | 1014.4 |
| 20260508024003 | 75 | 241 | 0.0 | 2.0 | 0.00 | 0.00 | 0.00 | 87 | 1014.2 |
| 20260508023502 | 75 | 214 | 1.0 | 2.0 | 0.00 | 0.00 | 0.00 | 86 | 1014.0 |
| 20260508023003 | 75 | 209 | 1.0 | 2.0 | 0.00 | 0.00 | 0.00 | 86 | 1013.9 |
| 20260508022503 | 76 | 229 | 1.0 | 2.0 | 0.00 | 0.00 | 0.00 | 85 | 1013.9 |
| 20260508022003 | 76 | 250 | 0.0 | 2.0 | 0.00 | 0.00 | 0.00 | 85 | 1013.8 |
| 20260508021507 | 76 | 237 | 1.0 | 3.0 | 0.00 | 0.00 | 0.00 | 85 | 1013.8 |
| 20260508021007 | 76 | 286 | 0.0 | 4.0 | 0.00 | 0.00 | 0.00 | 85 | 1013.8 |
| 20260508020504 | 76 | 305 | 2.0 | 4.0 | 0.00 | 0.00 | 0.00 | 85 | 1013.8 |
| 20260508020006 | 76 | 310 | 2.0 | 4.0 | 0.00 | 0.00 | 0.00 | 85 | 1013.9 |
| 20260508015506 | 76 | 311 | 2.0 | 4.0 | 0.00 | 0.00 | 0.00 | 85 | 1013.8 |
| 20260508015003 | 76 | 326 | 1.0 | 2.0 | 0.00 | 0.00 | 0.00 | 84 | 1013.8 |
| 20260508013504 | 77 | 250 | 0.0 | 3.0 | 0.00 | 0.00 | 0.00 | 83 | 1013.7 |
| 20260508013003 | 77 | 273 | 1.0 | 3.0 | 0.00 | 0.00 | 0.00 | 83 | 1013.7 |
| 20260508012502 | 77 | 300 | 1.0 | 3.0 | 0.00 | 0.00 | 0.00 | 83 | 1013.8 |
| 20260508012002 | 77 | 313 | 1.0 | 3.0 | 0.00 | 0.00 | 0.00 | 82 | 1013.7 |
| 20260508011505 | 77 | 302 | 1.0 | 3.0 | 0.00 | 0.00 | 0.00 | 82 | 1013.5 |
| 20260508011003 | 77 | 299 | 1.0 | 3.0 | 0.00 | 0.00 | 0.00 | 82 | 1013.6 |